Regional Weather Roundup
Issued by NWS

Home | Current Version | Previous Version | Graphics & Text | Print | Product List | Glossary On
Versions: 1 2 3 4 5 6 7 8 9 10 11 12 13 14 15 16 17 18 19 20 21 22 23 24 25 26 27 28 29 30 31 32 33 34 35 36 37 38 39 40 41 42 43 44 45 46 47 48 49 50
000
ASUS44 KMEG 241010
RWRTN
TENNESSEE HOURLY STATE WEATHER ROUNDUP
NATIONAL WEATHER SERVICE MEMPHIS TN
500 AM CDT MON APR 24 2017

TNZ002-004-019-021-049-052-054-088>092-241100-
WEST TENNESSEE

CITY           SKY/WX    TMP DP  RH WIND       PRES   REMARKS
MEMPHIS INTL   CLEAR     50  46  86 N3        29.87R
NWS MEMPHIS      N/A     48 N/A N/A MISG        N/A
JACKSON        RAIN      50  48  93 N7        29.85S
DYERSBURG      CLEAR     47  46  97 CALM      29.87F
SOMERVILLE     CLEAR     48  48 100 NW3       29.84S
UNION CITY     CLEAR     48  45  87 NE3       29.86S
BOLIVAR        CLEAR     50  48  93 NW5       29.83F
PARIS          CLEAR     45  43  93 N5        29.85S
HUNTINGDON     CLEAR     50  46  87 N5        29.84R
LEXINGTON      CLOUDY    52  50  93 N6        29.83S
SAVANNAH       CLOUDY    54  52  94 N6        29.81S FOG
$$

TNZ008-025-027-028-033-062-065-066-241100-
NORTH MIDDLE TENNESSEE

CITY           SKY/WX    TMP DP  RH WIND       PRES   REMARKS
NASHVILLE      CLOUDY    55  52  89 N8        29.81S
PORTLAND       CLOUDY    54  52  94 NE8       29.81S
CLARKSVILLE    CLOUDY    53  48  83 N10       29.85R
SMYRNA         CLOUDY    54  53  97 NE5       29.81F
COOKEVILLE     MOCLDY    52  52 100 N5        29.78F
GALLATIN       CLOUDY    54  52  94 CALM      29.83S
CROSSVILLE     CLOUDY    51  49  92 NE3       29.81S
$$

TNZ061-075-076-078-094-096-097-241100-
SOUTH MIDDLE TENNESSEE

CITY           SKY/WX    TMP DP  RH WIND       PRES   REMARKS
FAYETTEVILLE   CLOUDY    52  52 100 CALM      29.78S
TULLAHOMA      CLOUDY    54  52  94 E3        29.78F
WINCHESTER     CLOUDY    52  52 100 CALM      29.79S
MCMINNVILLE    CLOUDY    54  54 100 VRB5      29.79S
COLUMBIA       CLOUDY   N/A N/A N/A N5        29.78S
SHELBYVILLE    CLOUDY    55  55 100 NE3       29.79F
$$

TNZ017-018-042-046-047-241100-
NORTHEAST TENNESSEE

CITY           SKY/WX    TMP DP  RH WIND       PRES   REMARKS
TRI CITIES     CLOUDY    49  47  93 W3        29.82R
ELIZABETHTON   DRIZZLE   55  48  76 S5        29.80R
$$

TNZ012-013-036-069-073-074-241100-
CENTRAL EAST TENNESSEE

CITY           SKY/WX    TMP DP  RH WIND       PRES   REMARKS
KNOXVILLE      CLOUDY    53  50  89 NE7       29.79S
OAK RIDGE      CLOUDY    54  49  83 CALM      29.82R
DOWNTOWN KNOXV CLOUDY    54  52  94 CALM      29.81S
GATLINBURG     CLOUDY    52  50  93 CALM      29.79F
MORRISTOWN     MOCLDY    52  50  93 NE8       29.79S
JACKSBORO      CLOUDY    54  52  94 CALM      29.84S
$$

TNZ083-085-099-241100-
SOUTHEAST TENNESSEE

CITY           SKY/WX    TMP DP  RH WIND       PRES   REMARKS
CHATTANOOGA    DRIZZLE   56  55  97 N9        29.77F FOG
$$

SKY/WX REPORTED AS FAIR MEANS FEW OR NO CLOUDS BELOW
12 THOUSAND FEET.




USA.gov is the U.S. government's official web portal to all federal, state and local government web resources and services.